Location: Unspecified
(0.0000°N, 0.0000°E)
Time: 06:19:40
(UTC+00:00)

ISS - Pass Details

Date: 20 April 2019
Orbit: 408 x 410 km, 51.6° (Epoch: 19 May)

Event Time Altitude Azimuth Distance (km) Brightness Sun altitude
Exits shadow 05:07:27 - 203° (SSW) 1,594 -1.2 -12.6°
Reaches altitude 10° 05:07:46 10° 202° (SSW) 1,468 -1.3 -12.6°
Maximum altitude 05:10:58 50° 126° (SE) 528 -3.0 -11.8°
Drops below altitude 10° 05:14:11 10° 49° (NE) 1,470 0.0 -11.0°
Sets 05:16:17 0° 43° (NE) 2,322 1.0 -10.5°
